QPF
0.01 0.03 0.05 0.06 0.10 0.13 0.12 0.10 0.08 0.07 0.06 0.06 0.07 0.08 0.09 0.09 0.08 0.07 0.05 0.04 0.05 0.04 0.02 0.01 0.00 0.00 0.00 0.00 0.00 0.00 0.01 0.02 0.03 0.06 0.08 0.11 0.12 0.14 0.18 0.25 0.21 0.15 0.15 0.15
0.01 0.03 0.03 0.04 0.07 0.07 0.05 0.04 0.04 0.04 0.04 0.04 0.06 0.06 0.06 0.06 0.05 0.05 0.05 0.04 0.03 0.03 0.02 0.01 0.00 0.00 0.00 0.00 0.00 0.00 0.01 0.03 0.05 0.07 0.08 0.08 0.09 0.10 0.13 0.17 0.18 0.12 0.13 0.20
0.00 0.01 0.01 0.01 0.01 0.01 0.02 0.02 0.02 0.02 0.02 0.02 0.02 0.02 0.02 0.02 0.02 0.02 0.02 0.03 0.03 0.02 0.01 0.00 0.00 0.00 0.00 0.01 0.00 0.00 0.01 0.03 0.05 0.05 0.04 0.03 0.03 0.04 0.05 0.07 0.09 0.09 0.12 0.18
0.00 0.00 0.00 0.00 0.00 0.00 0.01 0.01 0.01 0.01 0.01 0.01 0.02 0.04 0.01 0.01 0.01 0.01 0.01 0.02 0.04 0.03 0.01 0.01 0.01 0.01 0.01 0.02 0.02 0.01 0.02 0.03 0.03 0.02 0.01 0.00 0.01 0.02 0.04 0.06 0.06 0.05 0.06 0.08
0.00 0.00 0.00 0.00 0.00 0.00 0.00 0.01 0.01 0.02 0.02 0.00 0.01 0.02 0.01 0.00 0.00 0.00 0.01 0.02 0.03 0.03 0.02 0.02 0.02 0.03 0.04 0.05 0.05 0.03 0.04 0.03 0.02 0.01 0.00 0.00 0.00 0.01 0.03 0.04 0.03 0.02 0.02 0.02
0.00 0.00 0.00 0.00 0.00 0.00 0.00 0.01 0.02 0.03 0.03 0.01 0.01 0.02 0.01 0.01 0.01 0.01 0.01 0.02 0.02 0.02 0.01 0.02 0.03 0.03 0.05 0.06 0.06 0.04 0.02 0.01 0.01 0.00 0.00 0.00 0.00 0.01 0.01 0.02 0.03 0.02 0.01 0.01
0.00 0.00 0.00 0.00 0.00 0.00 0.01 0.02 0.04 0.04 0.04 0.04 0.04 0.05 0.04 0.03 0.02 0.02 0.02 0.02 0.01 0.02 0.03 0.04 0.05 0.06 0.05 0.05 0.03 0.02 0.01 0.00 0.00 0.00 0.00 0.00 0.00 0.01 0.01 0.02 0.02 0.01 0.01 0.01
0.00 0.00 0.00 0.00 0.00 0.00 0.01 0.02 0.06 0.07 0.05 0.06 0.04 0.06 0.06 0.04 0.04 0.03 0.03 0.03 0.04 0.07 0.10 0.13 0.12 0.08 0.06 0.04 0.02 0.01 0.00 0.00 0.00 0.00 0.00 0.00 0.01 0.01 0.01 0.01 0.01 0.00 0.00 0.00
0.00 0.00 0.00 0.00 0.00 0.01 0.02 0.03 0.05 0.08 0.07 0.04 0.04 0.08 0.09 0.08 0.07 0.06 0.07 0.08 0.12 0.17 0.24 0.30 0.28 0.21 0.13 0.06 0.02 0.00 0.00 0.00 0.00 0.00 0.00 0.00 0.00 0.01 0.00 0.00 0.00 0.00 0.00 0.00
0.00 0.00 0.00 0.00 0.00 0.01 0.03 0.05 0.09 0.13 0.12 0.07 0.08 0.15 0.16 0.15 0.14 0.13 0.15 0.19 0.24 0.35 0.45 0.54 0.52 0.38 0.21 0.08 0.03 0.01 0.00 0.00 0.00 0.00 0.00 0.00 0.00 0.00 0.00 0.00 0.00 0.00 0.00 0.00
0.00 0.00 0.00 0.00 0.01 0.01 0.03 0.06 0.11 0.15 0.17 0.15 0.14 0.22 0.24 0.20 0.18 0.20 0.26 0.33 0.39 0.54 0.65 0.68 0.57 0.43 0.20 0.07 0.03 0.01 0.01 0.00 0.01 0.01 0.01 0.01 0.00 0.00 0.00 0.00 0.00 0.00 0.00 0.00
0.00 0.00 0.00 0.01 0.03 0.03 0.06 0.13 0.24 0.28 0.24 0.20 0.16 0.21 0.22 0.19 0.20 0.21 0.22 0.20 0.21 0.26 0.34 0.37 0.25 0.16 0.12 0.08 0.04 0.02 0.02 0.03 0.04 0.04 0.03 0.01 0.01 0.00 0.00 0.00 0.00 0.00 0.00 0.00
0.00 0.00 0.01 0.01 0.03 0.02 0.06 0.12 0.18 0.22 0.20 0.17 0.15 0.15 0.09 0.09 0.10 0.14 0.16 0.12 0.12 0.09 0.09 0.13 0.09 0.06 0.06 0.06 0.04 0.04 0.05 0.08 0.11 0.11 0.07 0.04 0.03 0.02 0.01 0.01 0.00 0.00 0.00 0.01
0.00 0.00 0.02 0.03 0.04 0.05 0.12 0.16 0.15 0.13 0.12 0.10 0.10 0.07 0.03 0.03 0.05 0.10 0.12 0.08 0.06 0.04 0.03 0.04 0.04 0.04 0.04 0.03 0.03 0.05 0.07 0.11 0.16 0.21 0.17 0.11 0.06 0.04 0.03 0.03 0.01 0.01 0.01 0.01
0.00 0.00 0.00 0.01 0.02 0.08 0.18 0.23 0.19 0.14 0.09 0.07 0.06 0.05 0.05 0.06 0.09 0.15 0.16 0.10 0.06 0.05 0.05 0.05 0.04 0.03 0.02 0.02 0.03 0.04 0.07 0.13 0.22 0.30 0.32 0.22 0.12 0.08 0.07 0.06 0.05 0.03 0.02 0.02
0.00 0.00 0.00 0.00 0.02 0.09 0.17 0.18 0.15 0.11 0.07 0.06 0.06 0.06 0.04 0.06 0.11 0.16 0.20 0.20 0.14 0.11 0.11 0.09 0.07 0.06 0.05 0.04 0.04 0.05 0.09 0.18 0.33 0.49 0.44 0.25 0.14 0.10 0.09 0.09 0.10 0.08 0.06 0.05
0.00 0.00 0.00 0.01 0.02 0.06 0.12 0.13 0.09 0.09 0.07 0.05 0.04 0.03 0.03 0.07 0.12 0.16 0.23 0.27 0.20 0.14 0.14 0.14 0.15 0.13 0.12 0.12 0.11 0.11 0.15 0.22 0.33 0.38 0.32 0.24 0.16 0.12 0.10 0.11 0.10 0.10 0.09 0.09
0.00 0.00 0.00 0.01 0.03 0.11 0.15 0.16 0.14 0.13 0.09 0.05 0.03 0.02 0.05 0.11 0.12 0.18 0.20 0.20 0.21 0.14 0.09 0.09 0.10 0.11 0.12 0.13 0.15 0.16 0.17 0.21 0.24 0.25 0.23 0.18 0.15 0.13 0.10 0.08 0.07 0.07 0.09 0.11
0.00 0.00 0.00 0.01 0.04 0.13 0.14 0.12 0.14 0.13 0.09 0.05 0.04 0.03 0.03 0.03 0.02 0.06 0.09 0.08 0.09 0.06 0.03 0.03 0.02 0.02 0.04 0.03 0.04 0.05 0.06 0.07 0.08 0.08 0.08 0.06 0.05 0.04 0.03 0.02 0.02 0.02 0.05 0.07
0.00 0.00 0.00 0.00 0.01 0.03 0.03 0.02 0.05 0.08 0.10 0.05 0.03 0.03 0.01 0.00 0.00 0.01 0.03 0.04 0.02 0.01 0.00 0.00 0.00 0.00 0.00 0.00 0.00 0.00 0.00 0.00 0.01 0.01 0.00 0.00 0.00 0.00 0.00 0.00 0.01 0.01 0.02 0.04
0.00 0.00 0.00 0.00 0.00 0.01 0.00 0.01 0.04 0.09 0.10 0.03 0.02 0.01 0.00 0.00 0.00 0.01 0.02 0.03 0.02 0.00 0.00 0.00 0.00 0.00 0.00 0.00 0.00 0.00 0.00 0.00 0.00 0.00 0.00 0.00 0.00 0.00 0.00 0.00 0.00 0.01 0.01 0.01
0.00 0.00 0.00 0.00 0.00 0.01 0.00 0.01 0.02 0.02 0.02 0.01 0.00 0.00 0.00 0.00 0.00 0.00 0.01 0.02 0.01 0.00 0.00 0.00 0.00 0.00 0.00 0.00 0.00 0.00 0.00 0.00 0.00 0.00 0.00 0.00 0.00 0.00 0.00 0.00 0.00 0.00 0.00 0.00
0.00 0.00 0.00 0.00 0.00 0.00 0.00 0.00 0.00 0.00 0.00 0.00 0.00 0.00 0.00 0.00 0.00 0.00 0.01 0.01 0.01 0.00 0.00 0.00 0.00 0.00 0.00 0.00 0.00 0.00 0.00 0.00 0.00 0.00 0.00 0.00 0.00 0.00 0.00 0.00 0.00 0.00 0.00 0.00
0.00 0.00 0.00 0.00 0.00 0.00 0.00 0.00 0.00 0.00 0.00 0.00 0.00 0.00 0.00 0.00 0.00 0.00 0.00 0.01 0.01 0.00 0.00 0.00 0.00 0.00 0.00 0.00 0.00 0.00 0.00 0.00 0.00 0.00 0.00 0.00 0.00 0.00 0.00 0.00 0.00 0.00 0.00 0.00
0.00 0.00 0.00 0.00 0.00 0.00 0.00 0.00 0.00 0.00 0.00 0.00 0.00 0.00 0.00 0.00 0.00 0.00 0.01 0.01 0.01 0.00 0.00 0.00 0.00 0.00 0.00 0.00 0.00 0.00 0.00 0.00 0.00 0.00 0.00 0.00 0.00 0.00 0.00 0.00 0.00 0.00 0.00 0.00
0.00 0.00 0.00 0.00 0.00 0.00 0.00 0.00 0.00 0.00 0.00 0.00 0.00 0.00 0.00 0.00 0.00 0.00 0.00 0.01 0.00 0.00 0.00 0.00 0.00 0.00 0.00 0.00 0.00 0.00 0.00 0.00 0.00 0.00 0.00 0.00 0.00 0.00 0.00 0.00 0.00 0.00 0.00 0.00
MSLP
1011.11 1011.79 1012.36 1012.81 1013.15 1013.39 1013.54 1013.63 1013.65 1013.60 1013.45 1013.18 1012.77 1012.23 1011.56 1010.79 1009.95 1009.09 1008.26 1007.49 1006.84 1006.32 1005.94 1005.72 1005.66 1005.74 1005.94 1006.26 1006.66 1007.13 1007.65 1008.18 1008.70 1009.21 1009.68 1010.11 1010.48 1010.79 1011.05 1011.25 1011.42 1011.56 1011.70 1011.85
1011.60 1012.16 1012.60 1012.92 1013.17 1013.36 1013.52 1013.67 1013.81 1013.89 1013.87 1013.71 1013.38 1012.84 1012.11 1011.21 1010.22 1009.18 1008.18 1007.27 1006.51 1005.93 1005.54 1005.35 1005.33 1005.46 1005.71 1006.08 1006.52 1007.02 1007.56 1008.12 1008.68 1009.21 1009.70 1010.14 1010.50 1010.79 1011.00 1011.16 1011.27 1011.37 1011.48 1011.62
1011.95 1012.36 1012.64 1012.83 1012.98 1013.13 1013.31 1013.54 1013.80 1014.02 1014.15 1014.11 1013.85 1013.33 1012.57 1011.58 1010.46 1009.29 1008.15 1007.13 1006.29 1005.67 1005.27 1005.10 1005.12 1005.31 1005.61 1006.02 1006.50 1007.03 1007.59 1008.17 1008.75 1009.30 1009.80 1010.23 1010.58 1010.84 1011.01 1011.12 1011.19 1011.25 1011.33 1011.46
1012.24 1012.48 1012.61 1012.68 1012.74 1012.86 1013.07 1013.38 1013.76 1014.12 1014.39 1014.46 1014.28 1013.80 1013.02 1011.99 1010.79 1009.52 1008.29 1007.19 1006.29 1005.64 1005.25 1005.10 1005.14 1005.36 1005.69 1006.12 1006.61 1007.15 1007.71 1008.29 1008.87 1009.42 1009.91 1010.33 1010.66 1010.89 1011.03 1011.10 1011.14 1011.17 1011.23 1011.35
1012.56 1012.66 1012.65 1012.61 1012.61 1012.71 1012.96 1013.34 1013.82 1014.30 1014.69 1014.87 1014.76 1014.32 1013.55 1012.50 1011.25 1009.94 1008.66 1007.53 1006.61 1005.94 1005.54 1005.39 1005.44 1005.65 1005.98 1006.38 1006.85 1007.35 1007.89 1008.44 1008.99 1009.51 1009.98 1010.38 1010.69 1010.90 1011.03 1011.08 1011.10 1011.12 1011.18 1011.28
1013.01 1012.98 1012.87 1012.76 1012.71 1012.81 1013.08 1013.53 1014.08 1014.65 1015.12 1015.37 1015.31 1014.91 1014.17 1013.12 1011.88 1010.56 1009.28 1008.15 1007.23 1006.57 1006.17 1006.00 1006.02 1006.19 1006.46 1006.80 1007.19 1007.62 1008.08 1008.57 1009.06 1009.54 1009.98 1010.35 1010.65 1010.85 1010.97 1011.03 1011.06 1011.08 1011.14 1011.24
1013.62 1013.50 1013.32 1013.16 1013.09 1013.19 1013.49 1013.97 1014.56 1015.17 1015.67 1015.95 1015.92 1015.54 1014.82 1013.80 1012.60 1011.32 1010.08 1008.99 1008.10 1007.45 1007.04 1006.85 1006.81 1006.90 1007.07 1007.30 1007.57 1007.89 1008.24 1008.63 1009.05 1009.47 1009.87 1010.23 1010.51 1010.72 1010.86 1010.94 1010.98 1011.03 1011.11 1011.22
1014.38 1014.21 1013.99 1013.80 1013.73 1013.83 1014.13 1014.61 1015.20 1015.79 1016.27 1016.54 1016.50 1016.13 1015.43 1014.45 1013.31 1012.10 1010.94 1009.91 1009.08 1008.46 1008.04 1007.81 1007.70 1007.68 1007.73 1007.82 1007.94 1008.11 1008.34 1008.62 1008.95 1009.31 1009.67 1010.01 1010.30 1010.53 1010.69 1010.80 1010.89 1010.97 1011.07 1011.21
1015.22 1015.01 1014.78 1014.59 1014.52 1014.61 1014.90 1015.35 1015.89 1016.43 1016.84 1017.05 1016.97 1016.58 1015.90 1014.97 1013.90 1012.78 1011.72 1010.78 1010.01 1009.42 1009.01 1008.73 1008.55 1008.42 1008.32 1008.26 1008.24 1008.26 1008.36 1008.53 1008.78 1009.08 1009.41 1009.74 1010.05 1010.30 1010.50 1010.65 1010.78 1010.90 1011.03 1011.19
1016.02 1015.81 1015.58 1015.40 1015.34 1015.43 1015.69 1016.08 1016.54 1016.98 1017.30 1017.42 1017.27 1016.85 1016.17 1015.28 1014.29 1013.27 1012.31 1011.46 1010.77 1010.23 1009.81 1009.50 1009.24 1009.00 1008.79 1008.59 1008.42 1008.32 1008.31 1008.39 1008.57 1008.83 1009.15 1009.48 1009.80 1010.09 1010.32 1010.51 1010.67 1010.81 1010.96 1011.14
1016.69 1016.49 1016.28 1016.13 1016.08 1016.17 1016.39 1016.72 1017.09 1017.42 1017.62 1017.63 1017.41 1016.94 1016.25 1015.40 1014.47 1013.54 1012.68 1011.93 1011.30 1010.80 1010.39 1010.04 1009.72 1009.40 1009.08 1008.78 1008.52 1008.32 1008.24 1008.26 1008.40 1008.65 1008.96 1009.30 1009.64 1009.94 1010.20 1010.40 1010.57 1010.72 1010.87 1011.04
1017.18 1017.01 1016.84 1016.72 1016.70 1016.79 1016.99 1017.26 1017.55 1017.77 1017.86 1017.77 1017.46 1016.95 1016.25 1015.42 1014.55 1013.69 1012.90 1012.22 1011.64 1011.17 1010.76 1010.39 1010.02 1009.64 1009.26 1008.90 1008.58 1008.34 1008.21 1008.22 1008.35 1008.59 1008.90 1009.25 1009.60 1009.91 1010.17 1010.36 1010.52 1010.64 1010.77 1010.91
1017.50 1017.38 1017.26 1017.20 1017.22 1017.33 1017.52 1017.75 1017.97 1018.11 1018.11 1017.93 1017.56 1017.00 1016.29 1015.48 1014.64 1013.83 1013.09 1012.45 1011.90 1011.43 1011.02 1010.62 1010.22 1009.82 1009.41 1009.02 1008.68 1008.44 1008.31 1008.32 1008.46 1008.71 1009.03 1009.38 1009.72 1010.01 1010.24 1010.40 1010.51 1010.58 1010.65 1010.74
1017.73 1017.67 1017.62 1017.63 1017.70 1017.85 1018.05 1018.27 1018.45 1018.53 1018.47 1018.24 1017.82 1017.23 1016.51 1015.70 1014.88 1014.09 1013.37 1012.74 1012.19 1011.71 1011.28 1010.86 1010.44 1010.03 1009.61 1009.23 1008.92 1008.70 1008.60 1008.63 1008.79 1009.04 1009.35 1009.69 1010.00 1010.25 1010.42 1010.52 1010.55 1010.55 1010.54 1010.55
1017.98 1017.99 1018.02 1018.10 1018.24 1018.44 1018.67 1018.90 1019.06 1019.12 1019.02 1018.75 1018.31 1017.70 1016.97 1016.17 1015.35 1014.55 1013.83 1013.18 1012.60 1012.10 1011.64 1011.20 1010.77 1010.36 1009.96 1009.61 1009.33 1009.15 1009.09 1009.15 1009.31 1009.56 1009.85 1010.14 1010.39 1010.58 1010.68 1010.69 1010.64 1010.54 1010.44 1010.37
1018.35 1018.43 1018.54 1018.70 1018.90 1019.15 1019.42 1019.66 1019.82 1019.87 1019.76 1019.47 1019.01 1018.40 1017.67 1016.86 1016.03 1015.22 1014.47 1013.78 1013.17 1012.63 1012.14 1011.68 1011.25 1010.85 1010.48 1010.17 1009.93 1009.79 1009.76 1009.83 1009.99 1010.21 1010.45 1010.68 1010.86 1010.96 1010.98 1010.90 1010.76 1010.58 1010.39 1010.24
1018.92 1019.06 1019.23 1019.45 1019.71 1019.99 1020.27 1020.52 1020.68 1020.72 1020.60 1020.31 1019.84 1019.23 1018.49 1017.68 1016.84 1016.01 1015.22 1014.50 1013.85 1013.27 1012.75 1012.28 1011.85 1011.47 1011.14 1010.87 1010.67 1010.56 1010.54 1010.61 1010.74 1010.91 1011.09 1011.24 1011.33 1011.35 1011.28 1011.13 1010.91 1010.66 1010.41 1010.18
1019.68 1019.87 1020.08 1020.32 1020.59 1020.88 1021.15 1021.38 1021.52 1021.54 1021.40 1021.09 1020.62 1020.01 1019.27 1018.46 1017.61 1016.77 1015.96 1015.22 1014.54 1013.93 1013.39 1012.92 1012.51 1012.15 1011.86 1011.62 1011.46 1011.37 1011.35 1011.39 1011.47 1011.58 1011.67 1011.74 1011.75 1011.69 1011.55 1011.34 1011.08 1010.79 1010.50 1010.24
1020.57 1020.77 1020.97 1021.20 1021.45 1021.70 1021.93 1022.11 1022.20 1022.17 1022.00 1021.67 1021.19 1020.57 1019.84 1019.04 1018.19 1017.35 1016.54 1015.79 1015.10 1014.49 1013.96 1013.50 1013.11 1012.79 1012.53 1012.34 1012.20 1012.12 1012.08 1012.09 1012.11 1012.14 1012.16 1012.14 1012.08 1011.96 1011.78 1011.55 1011.28 1010.99 1010.70 1010.43
1021.45 1021.62 1021.80 1021.97 1022.16 1022.33 1022.48 1022.57 1022.59 1022.49 1022.27 1021.91 1021.42 1020.80 1020.08 1019.30 1018.48 1017.65 1016.86 1016.12 1015.45 1014.86 1014.36 1013.93 1013.58 1013.30 1013.08 1012.92 1012.81 1012.73 1012.68 1012.65 1012.62 1012.58 1012.52 1012.44 1012.32 1012.17 1011.97 1011.75 1011.51 1011.25 1011.00 1010.76
1022.18 1022.31 1022.42 1022.51 1022.60 1022.67 1022.72 1022.71 1022.63 1022.46 1022.18 1021.79 1021.28 1020.67 1019.97 1019.22 1018.44 1017.66 1016.91 1016.21 1015.57 1015.02 1014.56 1014.17 1013.87 1013.64 1013.46 1013.34 1013.24 1013.17 1013.11 1013.04 1012.97 1012.88 1012.77 1012.65 1012.50 1012.34 1012.16 1011.98 1011.79 1011.59 1011.40 1011.21
1022.65 1022.71 1022.74 1022.74 1022.72 1022.69 1022.62 1022.51 1022.34 1022.09 1021.76 1021.34 1020.83 1020.24 1019.58 1018.88 1018.15 1017.43 1016.73 1016.08 1015.50 1015.00 1014.58 1014.24 1013.99 1013.80 1013.67 1013.57 1013.50 1013.44 1013.38 1013.30 1013.20 1013.09 1012.95 1012.81 1012.66 1012.51 1012.37 1012.24 1012.12 1012.00 1011.87 1011.74
1022.79 1022.77 1022.72 1022.63 1022.52 1022.39 1022.23 1022.04 1021.80 1021.50 1021.14 1020.71 1020.22 1019.66 1019.05 1018.40 1017.74 1017.08 1016.45 1015.86 1015.33 1014.87 1014.50 1014.20 1013.98 1013.83 1013.73 1013.66 1013.62 1013.58 1013.52 1013.45 1013.35 1013.23 1013.10 1012.96 1012.83 1012.71 1012.62 1012.55 1012.49 1012.44 1012.39 1012.32
1022.59 1022.51 1022.39 1022.23 1022.06 1021.86 1021.65 1021.40 1021.13 1020.81 1020.45 1020.05 1019.59 1019.08 1018.53 1017.96 1017.36 1016.77 1016.20 1015.66 1015.17 1014.74 1014.39 1014.12 1013.92 1013.78 1013.70 1013.66 1013.63 1013.61 1013.58 1013.53 1013.45 1013.35 1013.24 1013.13 1013.03 1012.95 1012.91 1012.89 1012.89 1012.90 1012.90 1012.87
1022.11 1021.97 1021.81 1021.62 1021.42 1021.21 1020.98 1020.74 1020.47 1020.18 1019.85 1019.48 1019.08 1018.64 1018.16 1017.66 1017.13 1016.60 1016.07 1015.57 1015.10 1014.68 1014.33 1014.05 1013.85 1013.71 1013.63 1013.59 1013.59 1013.59 1013.58 1013.56 1013.52 1013.46 1013.39 1013.32 1013.26 1013.22 1013.22 1013.23 1013.27 1013.32 1013.35 1013.35
1021.43 1021.27 1021.09 1020.91 1020.72 1020.53 1020.34 1020.14 1019.92 1019.68 1019.41 1019.11 1018.78 1018.41 1018.01 1017.56 1017.09 1016.60 1016.11 1015.62 1015.15 1014.72 1014.35 1014.04 1013.80 1013.64 1013.54 1013.50 1013.49 1013.51 1013.54 1013.56 1013.57 1013.56 1013.54 1013.51 1013.49 1013.49 1013.51 1013.55 1013.61 1013.66 1013.71 1013.72
Thickness
5764 5747 5737 5741 5745 5742 5737 5733 5731 5742 5753 5749 5747 5752 5768 5777 5778 5780 5785 5787 5788 5792 5803 5810 5812 5812 5809 5805 5800 5795 5790 5787 5783 5776 5770 5766 5763 5762 5760 5758 5756 5753 5750 5746
5741 5734 5748 5752 5746 5740 5733 5725 5724 5734 5743 5741 5736 5744 5761 5768 5771 5775 5779 5782 5786 5789 5795 5800 5804 5804 5803 5800 5796 5791 5787 5783 5780 5775 5770 5766 5762 5759 5758 5755 5752 5749 5746 5742
5732 5740 5752 5745 5737 5729 5725 5718 5718 5718 5724 5727 5720 5724 5742 5758 5766 5771 5777 5781 5784 5786 5788 5792 5795 5796 5797 5794 5792 5787 5782 5778 5774 5769 5764 5759 5755 5753 5750 5748 5747 5745 5742 5737
5735 5745 5743 5735 5728 5724 5710 5724 5720 5713 5701 5693 5701 5686 5719 5735 5744 5754 5763 5770 5775 5782 5785 5786 5786 5787 5788 5788 5786 5781 5775 5771 5767 5763 5758 5753 5748 5745 5745 5744 5742 5740 5737 5733
5726 5736 5731 5723 5725 5726 5714 5722 5713 5703 5690 5681 5685 5677 5697 5716 5720 5732 5746 5758 5768 5776 5779 5778 5778 5778 5778 5776 5773 5770 5766 5762 5760 5758 5754 5750 5745 5743 5741 5739 5735 5733 5731 5728
5729 5737 5732 5723 5727 5724 5715 5705 5694 5681 5671 5662 5675 5669 5676 5689 5699 5714 5730 5744 5756 5766 5770 5771 5770 5769 5766 5763 5760 5759 5756 5754 5754 5753 5750 5747 5743 5739 5734 5731 5728 5726 5724 5722
5709 5716 5721 5721 5705 5706 5696 5672 5651 5648 5646 5652 5674 5670 5668 5681 5693 5700 5711 5725 5739 5749 5755 5757 5757 5756 5756 5753 5750 5749 5748 5748 5749 5748 5746 5743 5740 5736 5731 5727 5724 5720 5717 5715
5682 5682 5698 5700 5687 5678 5677 5666 5641 5630 5632 5646 5666 5662 5664 5678 5688 5696 5703 5711 5723 5732 5739 5742 5745 5747 5747 5746 5744 5743 5742 5743 5745 5744 5741 5739 5736 5731 5728 5724 5720 5717 5713 5711
5672 5670 5687 5687 5679 5669 5655 5650 5650 5637 5635 5636 5648 5658 5665 5675 5680 5685 5690 5697 5703 5712 5721 5726 5730 5733 5735 5735 5737 5739 5740 5740 5740 5738 5736 5733 5730 5727 5723 5720 5717 5713 5710 5707
5670 5651 5660 5664 5659 5649 5640 5634 5627 5625 5623 5624 5637 5638 5636 5649 5658 5668 5675 5682 5690 5698 5706 5712 5717 5720 5722 5729 5733 5735 5737 5737 5735 5732 5729 5727 5724 5722 5719 5715 5711 5708 5704 5701
5659 5636 5628 5628 5619 5615 5617 5615 5612 5613 5618 5618 5618 5621 5635 5638 5648 5656 5666 5675 5683 5689 5695 5698 5702 5710 5718 5725 5729 5730 5731 5730 5728 5725 5723 5720 5718 5716 5713 5709 5706 5702 5699 5695
5646 5618 5603 5607 5613 5617 5611 5606 5603 5600 5605 5614 5615 5613 5634 5637 5646 5653 5662 5672 5681 5687 5691 5694 5698 5706 5713 5718 5723 5725 5726 5725 5722 5719 5716 5714 5711 5708 5704 5702 5699 5696 5693 5690
5635 5607 5586 5588 5593 5602 5600 5603 5606 5604 5602 5607 5608 5608 5629 5635 5643 5651 5659 5669 5678 5685 5689 5693 5696 5702 5709 5715 5720 5722 5722 5720 5718 5713 5708 5705 5702 5699 5697 5696 5693 5691 5688 5685
5630 5600 5585 5574 5577 5585 5585 5593 5604 5605 5602 5604 5603 5604 5615 5626 5635 5646 5656 5665 5674 5681 5687 5692 5696 5702 5707 5713 5717 5718 5718 5717 5713 5708 5702 5697 5694 5693 5690 5689 5688 5686 5684 5681
5615 5596 5593 5588 5587 5582 5578 5582 5594 5600 5603 5600 5599 5600 5603 5616 5627 5638 5651 5660 5667 5673 5679 5686 5691 5696 5701 5705 5709 5711 5712 5711 5707 5701 5694 5689 5688 5686 5685 5684 5683 5682 5680 5678
5605 5595 5590 5584 5584 5582 5577 5576 5584 5590 5593 5595 5598 5597 5605 5616 5627 5636 5643 5651 5657 5662 5668 5675 5681 5685 5688 5692 5696 5699 5701 5700 5697 5691 5686 5681 5679 5678 5679 5680 5679 5677 5674 5673
5597 5591 5584 5577 5585 5585 5570 5564 5570 5577 5581 5586 5586 5589 5603 5612 5620 5629 5635 5642 5648 5654 5660 5665 5669 5672 5675 5678 5682 5684 5686 5687 5684 5679 5676 5674 5672 5672 5673 5673 5672 5670 5668 5667
5598 5591 5579 5577 5579 5566 5561 5569 5571 5576 5580 5582 5586 5593 5601 5608 5620 5630 5634 5637 5644 5650 5654 5658 5661 5664 5666 5668 5671 5674 5675 5675 5672 5669 5667 5666 5665 5664 5664 5664 5663 5662 5661 5659
5600 5593 5581 5573 5571 5567 5570 5576 5575 5576 5582 5584 5588 5596 5604 5611 5624 5630 5638 5640 5644 5650 5654 5656 5659 5661 5662 5664 5666 5667 5665 5664 5663 5661 5660 5659 5658 5657 5656 5655 5654 5654 5653 5653
5601 5591 5581 5574 5572 5565 5570 5583 5586 5581 5586 5590 5593 5598 5604 5609 5610 5619 5635 5641 5647 5653 5655 5657 5659 5660 5660 5661 5662 5660 5658 5658 5656 5655 5654 5653 5652 5650 5649 5648 5647 5647 5646 5646
5589 5582 5575 5572 5572 5573 5582 5589 5592 5583 5582 5592 5596 5600 5604 5604 5607 5621 5634 5643 5650 5656 5658 5658 5658 5657 5657 5658 5658 5655 5654 5652 5652 5651 5649 5647 5646 5644 5643 5642 5641 5640 5639 5639
5588 5581 5578 5575 5572 5573 5592 5592 5587 5587 5594 5597 5601 5605 5609 5614 5623 5632 5640 5647 5653 5657 5659 5658 5655 5655 5656 5656 5655 5652 5650 5650 5648 5646 5644 5641 5640 5638 5637 5635 5633 5632 5631 5630
5598 5592 5586 5584 5583 5593 5599 5599 5601 5601 5600 5604 5607 5612 5616 5621 5627 5635 5642 5649 5654 5658 5658 5657 5655 5654 5654 5653 5652 5649 5647 5647 5644 5640 5637 5635 5632 5630 5628 5626 5624 5622 5621 5620
5608 5606 5597 5593 5596 5600 5603 5605 5607 5609 5609 5612 5615 5618 5622 5625 5631 5637 5644 5650 5653 5656 5657 5656 5654 5652 5650 5650 5649 5647 5646 5644 5640 5635 5631 5628 5625 5622 5619 5617 5615 5613 5611 5610
5614 5610 5601 5598 5602 5605 5607 5609 5612 5614 5616 5619 5622 5625 5628 5631 5635 5640 5644 5649 5652 5654 5655 5655 5653 5651 5649 5649 5647 5646 5643 5640 5635 5630 5627 5623 5620 5616 5613 5609 5607 5606 5604 5602
5621 5613 5603 5600 5605 5603 5606 5614 5617 5618 5619 5622 5624 5627 5632 5635 5638 5642 5645 5649 5652 5653 5654 5653 5653 5652 5650 5648 5646 5644 5641 5637 5632 5627 5623 5619 5616 5613 5609 5606 5603 5600 5599 5598